Location: Cluj-Napoca
(46.7712°N, 23.6236°E)
Time: 05:33:33
(UTC+03:00)

ISS - Pass Details

Date: 01 April 2020
Orbit: 417 x 423 km, 51.6° (Epoch: 29 March)

Event Time Altitude Azimuth Distance (km) Brightness Sun altitude
Rises 20:22:55 0° 294° (WNW) 2,362 2.3 -5.5°
Reaches altitude 10° 20:25:05 10° 300° (WNW) 1,497 0.6 -5.9°
Maximum altitude 20:28:20 47° 16° (NNE) 565 -3.1 -6.4°
Drops below altitude 10° 20:31:35 10° 92° (E) 1,495 -1.6 -6.9°
Enters shadow 20:31:49 - 93° (E) 1,583 -1.5 -7.0°
